Location: Barcelona
(41.3830°N, 2.1830°E)
Time: 03:39:22
(UTC+02:00)

ISS - Pass Details

Date: 30 June 2020
Orbit: 417 x 421 km, 51.6° (Epoch: 09 July)

Event Time Altitude Azimuth Distance (km) Brightness Sun altitude
Exits shadow 04:53:29 26° 217° (SW) 865 -2.8 -13.4°
Maximum altitude 04:55:11 65° 141° (SE) 461 -3.7 -13.2°
Drops below altitude 10° 04:58:31 10° 59° (ENE) 1,496 0.3 -12.7°
Sets 05:00:38 0° 57° (ENE) 2,362 1.8 -12.5°
